Location: Ariel
(45.9570°N, 122.5700°W)
Time: 21:32:51
(UTC-07:00)

Altair - Pass Details

Date: 26 July 2019
Orbit: 1501 x 1683 km, 47.2° (Epoch: 19 August)

Event Time Altitude Azimuth Distance (km) Brightness Sun altitude
Rises 11:14:07 0° 223° (SW) 4,677 10.0 53.4°
Reaches altitude 10° 11:17:16 10° 218° (SW) 3,679 9.6 53.8°
Maximum altitude 11:26:05 53° 145° (SE) 1,799 10.4 55.0°
Drops below altitude 10° 11:34:52 10° 73° (ENE) 3,660 9.9 56.1°
Sets 11:37:58 0° 68° (ENE) 4,651 10.2 56.5°
